Weather Roundup
Issued by NWS Corpus Christi, TX

Home | Current Version | Previous Version | Text Only | Print | Product List | Glossary On
Versions: 1 2 3 4 5 6 7 8 9 10 11 12 13 14 15 16 17 18 19 20 21 22 23 24 25 26 27 28 29 30 31 32 33 34 35 36 37 38 39 40 41 42 43 44 45 46 47 48 49 50
000
ASUS44 KCRP 211810
HRRCRP

SOUTH TEXAS REGIONAL WEATHER ROUNDUP
NATIONAL WEATHER SERVICE CORPUS CHRISTI TX
1200 PM CST SUN JAN 21 2018


TXZ229>244-211900-
...CORPUS CHRISTI AREA OBSERVATIONS...

CITY           SKY/WX    TMP DP  RH WIND       PRES   REMARKS
CORPUS CHRISTI CLOUDY    71  66  84 S29       29.90F
NAS CORPUS CHR CLOUDY    72  65  78 S17       29.90F
ROCKPORT       CLOUDY    68  64  87 SE13      29.93F FOG
KINGSVILLE NAS CLOUDY    76  66  71 SE17G24   29.87F
ALICE          CLOUDY    73  63  70 S16G29    29.87F
$$

...VICTORIA AREA OBSERVATIONS...

CITY           SKY/WX    TMP DP  RH WIND       PRES   REMARKS
PORT LAVACA    PTSUNNY   75  64  67 S23G31    29.95F
VICTORIA       CLOUDY    73  63  70 S28G35    29.93F
BEEVILLE       CLOUDY    68  65  90 S18G26    29.91F
PLEASANTON     CLOUDY    69  64  85 S8        29.91F
SAN ANTONIO    LGT RAIN  66  63  90 SE12      29.92F FOG
$$

...LAREDO AREA OBSERVATIONS...

CITY           SKY/WX    TMP DP  RH WIND       PRES   REMARKS
LAREDO         CLOUDY    69  61  75 SW12      29.89F
COTULLA        CLOUDY    67  62  84 SW8       29.89F
DEL RIO        CLOUDY    54  54 100 W5        29.90F FOG
MCALLEN        CLOUDY    78  65  63 SE26G33   29.89F
HEBBRONVILLE   PTSUNNY   73  60  63 SW15G25   29.89F
$$

...OTHER TEXAS OBSERVATIONS...

CITY           SKY/WX    TMP DP  RH WIND       PRES   REMARKS
BROWNSVILLE    PTSUNNY   77  68  73 S24G31    29.92F
HOUSTON        CLOUDY    74  65  73 S15G25    29.98F
COL. STATION   CLOUDY    71  65  81 S13       29.93F
AUSTIN         CLOUDY    70  66  87 S22G28    29.91F
WACO           CLOUDY    69  61  75 S17       29.88F
FORT WORTH     CLOUDY    74  61  63 S24G33    29.84F
WICHITA FALLS  PTSUNNY   69  51  52 SW25G32   29.79F
LUBBOCK        MOSUNNY   59  18  20 SW32G41   29.79F BLWGDUST
EL PASO        MOSUNNY   49   5  16 W24G38    30.02F
$$

...MARINE OBSERVATIONS...

STATION/POSITION TIME  SKY/WX   TEMP    WIND        PRES    VSBY  WAVE   SWELL
                                AIR SEA DIR/SP/G                  HT/PER HT/PER
                 (UTC)          (F)     (DEG/KT/KT) (MB)    (MI)  (FT/S) (FT/S)
PORT ARANSAS     NOT AVBL
BUOY 90 E PORT A 1750            72 71  130/ 21/ 27 1014.3F         6/ 6
BUOY 200 E PT IS 1750            72 73  130/ 10/ 12 1016.8F         4/ 6   3/ 6
BUOY 15 E GALVES 1650            56 50  130/ 10/ 10 1017.0          3/ 6   3/ 6
$$



USA.gov is the U.S. government's official web portal to all federal, state and local government web resources and services.